P 76-5

Satellite information

Favourite Embed

Satellite Type and Status

PAYLOADIN ORBIT

Key statistics

Satellite P 76-5 at a glance.

Uptime

18104

Days in orbit

Revolutions

≈ 13.7

Per day

Orbit

SSO

Sun Synchronous Orbit

Inclination

99.9

Latest

Satellite identification and parameters

Extended collection of information and parameters for P 76-5.

Object identification

Identified? True

Debris? False

Object name: P 76-5

International designator: 1976-047A

Object number (NORAD): 8860

Object ID (CCSDS): 8860

Country: UNITED STATES OF AMERICA (US)

Current information (Y/N): Y

RCS size: LARGE

Orbital parameters

Period: 105.244 minutes

Inclination: 99.9193 deg

SMA: 7383.994 km

Apoapsis: 1036.976 km

Periapsis: 974.742 km

RAAN: 191.6027 deg

Eccentricy: 0.00421409

Argument of periapsis: 107.8939 deg

Mean anomaly: 1.354 deg

Mean motion: 13.68251029 rev/day

Mean motion (dot): 0.00000121 rev/day2

B* drag term: 0.00019529801 1/REarth

Two-line elements (TLE)

Creation date: Dec. 14, 2025, 6:24 p.m.

Reference frame: TEME

Reference center: EARTH

Epoch: Dec. 14, 2025, 4:59 a.m. UTC

TLE line 0: 0 P 76-5

TLE line 1: 1 08860U 76047A 25348.20786142 .00000121 00000-0 19530-3 0 9993

TLE line 2: 2 08860 99.9193 191.6027 0042141 107.8939 1.3540 13.68251029471090

Live tracking on map

Real-time ground track for satellite P 76-5.

In-orbit conjunctions

A list of the most updated potential collisions computed for object P 76-5.

Target Orbit TCA Probability of collision Miss distance Type
THORAD AGENA D DEB None 2025-11-27 13:34:57 0.006850845 121.0 (m) DEBRIS
THOR ABLESTAR DEB LEO 2025-11-23 00:04:34 0.0001309216 570.0 (m) DEBRIS
FENGYUN 1C DEB SSO 2025-10-20 11:12:56 0.000280987 101.0 (m) DEBRIS
COSMOS 1375 DEB LEO 2025-09-14 03:17:18 0.0001832475 539.0 (m) DEBRIS
COSMOS 2251 DEB LEO 2024-09-25 07:58:18 0.0002056211 933.0 (m) DEBRIS

Associated space launch

Experimental military satellite

P 76-5 was lifted into orbit during the mission ‘Scout B-1 | Wideband’, on board a Scout B-1 space rocket.

The launch took place on May 22, 1976, 7:42 a.m. from Space Launch Complex 5.

For more information about the launch, click the button.

Launch to space Scout B-1 | Wideband
Scout B-1 | Wideband

Agency: N/A

Status: Launch Successful

Launch date: May 22, 1976, 7:42 a.m. UTC

Rocket: Scout B-1

Launch pad: Space Launch Complex 5

Location: Vandenberg SFB, CA, USA

...

Latest news about this satellite

There are no fresh news available about this satellite. Check back as we update our databases every day.


Newsletter sign-up

Weekly statistics, charts and insights to help you stay on top of the space industry.